| time (UTC) | temp F | wind direction | speed knots | gust knots | rain 1hr in | rain 24hr in | rain mn in | humidity % | barometer mb |
| 20260502224529 | 62 | 89 | 0.0 | 2.6 | 0.00 | 0.00 | 0.00 | 86 | 1017.3 |
| 20260502223027 | 62 | 0 | 0.0 | 0.0 | 0.00 | 0.00 | 0.00 | 86 | 1017.5 |
| 20260502221532 | 62 | 69 | 0.0 | 0.9 | 0.00 | 0.00 | 0.00 | 86 | 1017.4 |
| 20260502220029 | 62 | 0 | 0.0 | 1.7 | 0.00 | 0.00 | 0.00 | 86 | 1017.5 |
| 20260502214528 | 62 | 0 | 0.0 | 2.6 | 0.00 | 0.00 | 0.00 | 86 | 1017.6 |
| 20260502213029 | 62 | 52 | 0.9 | 3.5 | 0.00 | 0.00 | 0.00 | 86 | 1017.7 |
| 20260502211528 | 63 | 88 | 1.7 | 7.8 | 0.00 | 0.00 | 0.00 | 85 | 1017.9 |
| 20260502210030 | 63 | 97 | 2.6 | 8.7 | 0.00 | 0.00 | 0.00 | 85 | 1017.8 |
| 20260502204529 | 63 | 132 | 3.5 | 7.8 | 0.00 | 0.00 | 0.00 | 85 | 1017.8 |
| 20260502203028 | 63 | 104 | 4.3 | 7.8 | 0.00 | 0.00 | 0.00 | 84 | 1017.7 |
| 20260502201533 | 63 | 106 | 4.3 | 11.3 | 0.00 | 0.00 | 0.00 | 84 | 1017.3 |
| 20260502200029 | 63 | 80 | 6.1 | 9.6 | 0.00 | 0.00 | 0.00 | 84 | 1017.2 |
| 20260502194530 | 64 | 89 | 7.0 | 10.4 | 0.00 | 0.00 | 0.00 | 83 | 1017.0 |
| 20260502193028 | 64 | 84 | 7.0 | 11.3 | 0.00 | 0.00 | 0.00 | 82 | 1016.9 |
| 20260502191528 | 64 | 107 | 6.1 | 8.7 | 0.00 | 0.00 | 0.00 | 82 | 1017.1 |
| 20260502190035 | 64 | 86 | 6.1 | 10.4 | 0.00 | 0.00 | 0.00 | 81 | 1017.0 |
| 20260502184543 | 65 | 105 | 7.0 | 12.2 | 0.00 | 0.00 | 0.00 | 80 | 1017.0 |
| 20260502183035 | 65 | 78 | 6.1 | 12.2 | 0.00 | 0.00 | 0.00 | 79 | 1016.9 |
| 20260502181539 | 66 | 81 | 7.0 | 11.3 | 0.00 | 0.00 | 0.00 | 78 | 1017.0 |
| 20260502163031 | 68 | 71 | 7.0 | 13.9 | 0.00 | 0.00 | 0.00 | 73 | 1017.7 |
| 20260502161529 | 69 | 73 | 7.8 | 13.0 | 0.00 | 0.00 | 0.00 | 72 | 1017.6 |
| 20260502151534 | 69 | 95 | 6.1 | 10.4 | 0.00 | 0.00 | 0.00 | 72 | 1018.5 |
| 20260502123033 | 69 | 101 | 6.1 | 13.0 | 0.00 | 0.00 | 0.00 | 72 | 1019.6 |
| 20260502121536 | 70 | 112 | 9.6 | 14.8 | 0.00 | 0.00 | 0.00 | 70 | 1019.6 |
| 20260502114531 | 69 | 144 | 7.0 | 13.9 | 0.00 | 0.00 | 0.00 | 72 | 1020.0 |
| 20260502113032 | 69 | 136 | 3.5 | 13.0 | 0.00 | 0.00 | 0.00 | 73 | 1020.2 |
| 20260502111530 | 69 | 86 | 8.7 | 12.2 | 0.00 | 0.00 | 0.00 | 73 | 1020.1 |
| 20260502110030 | 69 | 126 | 4.3 | 12.2 | 0.00 | 0.00 | 0.00 | 74 | 1020.3 |
| 20260502104530 | 69 | 64 | 7.0 | 11.3 | 0.00 | 0.00 | 0.00 | 73 | 1020.4 |
| 20260502103031 | 69 | 81 | 6.1 | 13.0 | 0.00 | 0.00 | 0.00 | 74 | 1020.4 |
| 20260502101540 | 68 | 103 | 7.8 | 13.9 | 0.00 | 0.00 | 0.00 | 75 | 1020.6 |
| 20260502091528 | 67 | 98 | 7.8 | 13.9 | 0.00 | 0.00 | 0.00 | 77 | 1020.8 |
| 20260502071528 | 63 | 70 | 3.5 | 7.8 | 0.00 | 0.00 | 0.00 | 87 | 1021.0 |
| 20260502070028 | 64 | 0 | 0.0 | 1.7 | 0.00 | 0.00 | 0.00 | 87 | 1021.0 |
| 20260502064530 | 63 | 285 | 0.9 | 2.6 | 0.00 | 0.00 | 0.00 | 88 | 1021.2 |
| 20260502063030 | 63 | 90 | 0.0 | 1.7 | 0.00 | 0.00 | 0.00 | 88 | 1021.2 |
| 20260502061529 | 63 | 0 | 0.0 | 0.0 | 0.00 | 0.00 | 0.00 | 88 | 1021.1 |
| 20260502060030 | 62 | 0 | 0.0 | 0.0 | 0.00 | 0.00 | 0.00 | 87 | 1020.9 |
| 20260502054530 | 62 | 0 | 0.0 | 0.0 | 0.00 | 0.00 | 0.00 | 87 | 1020.8 |
| 20260502053028 | 62 | 0 | 0.0 | 0.9 | 0.00 | 0.00 | 0.00 | 87 | 1020.7 |
| 20260502051530 | 62 | 75 | 0.0 | 1.7 | 0.00 | 0.00 | 0.00 | 87 | 1020.6 |
| 20260502050037 | 62 | 0 | 0.0 | 0.9 | 0.00 | 0.00 | 0.00 | 87 | 1020.8 |
| 20260502044527 | 62 | 0 | 0.0 | 0.9 | 0.00 | 0.00 | 0.00 | 87 | 1020.6 |
| 20260502043030 | 62 | 0 | 0.0 | 0.9 | 0.00 | 0.00 | 0.00 | 87 | 1020.7 |
| 20260502041542 | 62 | 0 | 0.0 | 0.9 | 0.00 | 0.00 | 0.00 | 87 | 1020.7 |
| 20260502040031 | 62 | 0 | 0.0 | 0.0 | 0.00 | 0.00 | 0.00 | 87 | 1020.9 |
| 20260502034528 | 62 | 0 | 0.0 | 0.9 | 0.00 | 0.00 | 0.00 | 87 | 1021.0 |
| 20260502033031 | 62 | 0 | 0.0 | 0.9 | 0.00 | 0.00 | 0.00 | 87 | 1021.1 |
| 20260502031530 | 62 | 75 | 0.0 | 1.7 | 0.00 | 0.00 | 0.00 | 87 | 1021.1 |
| 20260502030031 | 62 | 76 | 0.0 | 2.6 | 0.00 | 0.00 | 0.00 | 87 | 1021.2 |
| 20260502024528 | 62 | 76 | 0.0 | 3.5 | 0.00 | 0.00 | 0.00 | 87 | 1021.1 |
| 20260502023031 | 62 | 111 | 0.9 | 2.6 | 0.00 | 0.00 | 0.00 | 87 | 1020.9 |
| 20260502021528 | 62 | 0 | 0.0 | 2.6 | 0.00 | 0.00 | 0.00 | 87 | 1021.2 |
| 20260502020028 | 61 | 0 | 0.0 | 0.9 | 0.00 | 0.00 | 0.00 | 87 | 1021.3 |
| 20260502014533 | 61 | 0 | 0.0 | 2.6 | 0.00 | 0.00 | 0.00 | 86 | 1021.3 |
| 20260502013028 | 61 | 104 | 0.0 | 1.7 | 0.00 | 0.00 | 0.00 | 86 | 1021.4 |
| 20260502011530 | 61 | 107 | 0.0 | 1.7 | 0.00 | 0.00 | 0.00 | 86 | 1021.6 |
| 20260502010030 | 62 | 0 | 0.0 | 1.7 | 0.00 | 0.00 | 0.00 | 86 | 1021.8 |
| 20260502004528 | 63 | 0 | 0.0 | 1.7 | 0.00 | 0.00 | 0.00 | 86 | 1021.9 |
| 20260502003034 | 63 | 0 | 0.0 | 0.0 | 0.00 | 0.00 | 0.00 | 86 | 1022.0 |
| 20260502001529 | 63 | 0 | 0.0 | 0.9 | 0.00 | 0.00 | 0.00 | 86 | 1022.4 |
| 20260502000030 | 63 | 0 | 0.0 | 0.0 | 0.00 | 0.00 | 0.00 | 86 | 1022.6 |
| 20260501234531 | 63 | 0 | 0.0 | 0.0 | 0.00 | 0.00 | 0.00 | 86 | 1022.6 |
| 20260501233031 | 63 | 0 | 0.0 | 0.0 | 0.00 | 0.00 | 0.00 | 86 | 1022.9 |
| 20260501231546 | 63 | 0 | 0.0 | 1.7 | 0.00 | 0.00 | 0.00 | 86 | 1022.8 |
| 20260501230029 | 63 | 0 | 0.0 | 3.5 | 0.00 | 0.00 | 0.00 | 86 | 1022.9 |